Flag for India Weather past 2 weeks in New Okhla Industrial Development Authority, Uttar Pradesh, India

Now
45 °F

Fog.


Feels Like: 45 °F
Forecast: 39 / 66 °F
Wind: No wind

Location: New Delhi Palam Airport

Current Time: Dec 29, 2014 at 7:20:23 AM

Latest Report: Dec 29, 2014 at 6:30 AM


Visibility: 0 mi

Pressure: 30.07 "Hg

Humidity: 100%

Dew point: 45 °F

Location of New Okhla Industrial Development AuthorityLocation

Historic Weather in New Okhla Industrial Development Authority — Graph

°F

New Okhla Industrial Development Authority temperature yesterday

Maximum temperature yesterday: 63 °F (at 2:30 PM)
Minimum temperature yesterday: 36 °F (at 6:00 AM)
Average temperature yesterday: 46 °F

Past Weeks' High & Low Weather Summary

 TemperatureHumidityPressure
High64 °F (Dec 15, 2:30 PM)100% (Dec 14, 8:00 AM)30.24 "Hg (Dec 14, 8:00 AM)
Low36 °F (Dec 28, 6:00 AM)46% (Dec 27, 2:30 PM)29.95 "Hg (Dec 14, 5:30 AM)
Average50 °F92%30.08 "Hg
* Reported Dec 14 5:30 AM — Dec 29 6:00 AM, New Okhla Industrial Development Authority, Weather by CustomWeather, © 2014

Note: Actual official high and low records may vary slightly from our data, if they occured in-between our weather recording intervals... More about our weather records

Advertising

New Okhla Industrial Development Authority weather history for previous 24 hours

 ConditionsComfort  
Time TempWeatherWind HumidityBarometerVisibility
6:00 AM
Dec 29
45 °FFog.No wind100%30.07 "Hg0 mi
5:30 AM45 °FFog.No wind100%30.07 "Hg0 mi
5:00 AM46 °FFog.No wind100%30.07 "Hg0 mi
4:30 AM46 °FFog.No wind100%30.07 "Hg0 mi
4:00 AM46 °FFog.No wind100%30.07 "Hg0 mi
3:30 AM46 °FFog.No wind100%30.07 "Hg0 mi
3:00 AM46 °FFog.No wind100%30.07 "Hg0 mi
2:30 AM46 °FFog.No wind100%30.07 "Hg0 mi
2:00 AM45 °FFog.No wind100%30.09 "Hg0 mi
1:30 AM45 °FFog.No wind100%30.09 "Hg0 mi
1:00 AM45 °FFog.No wind100%30.07 "Hg0 mi
12:30 AM45 °FFog.No wind100%30.09 "Hg0 mi
12:00 AM43 °FFog.No wind100%30.09 "Hg0 mi
11:30 PM
Dec 28
43 °FFog.No wind100%30.09 "Hg0 mi
11:00 PM45 °FFog.No wind100%30.09 "Hg0 mi
10:30 PM45 °FFog.No wind100%30.09 "Hg0 mi
10:00 PM46 °FFog.No wind100%30.09 "Hg0 mi
9:30 PM46 °FFog.No wind100%30.09 "Hg0 mi
9:00 PM46 °FFog.No wind100%30.09 "Hg0 mi
8:30 PM48 °FFog.No wind100%30.09 "Hg0 mi
8:00 PM50 °FFog.No wind94%30.09 "Hg0 mi
7:30 PM52 °FFog.No wind88%30.09 "Hg0 mi
6:30 PM55 °FFog.No wind77%30.07 "Hg1 mi
5:30 PM57 °FClear.5 mph72%30.07 "Hg1 mi
5:00 PM59 °FClear.5 mph68%30.07 "Hg1 mi
4:30 PM61 °FClear.7 mph63%30.07 "Hg1 mi
4:00 PM63 °FClear.6 mph64%30.07 "Hg1 mi
3:30 PM63 °FClear.7 mph64%30.07 "Hg1 mi
3:00 PM63 °FClear.7 mph64%30.07 "Hg1 mi
2:30 PM63 °FClear.5 mph68%30.07 "Hg1 mi
2:00 PM61 °FClear.6 mph72%30.09 "Hg1 mi
1:00 PM59 °FFog.7 mph82%30.09 "Hg1 mi
12:30 PM57 °FFog.6 mph88%30.12 "Hg1 mi
11:30 AM50 °FFog.5 mph100%30.15 "Hg0 mi
11:00 AM48 °FFog.No wind100%30.15 "Hg0 mi
10:30 AM45 °FFog.No wind100%30.15 "Hg0 mi
10:00 AM43 °FFog.No wind100%30.15 "Hg0 mi
9:30 AM41 °FFog.No wind100%30.15 "Hg0 mi
9:00 AM39 °FFog.No wind100%30.12 "Hg0 mi
8:30 AM37 °FFog.No wind100%30.12 "Hg0 mi
8:00 AM36 °FFog.No wind100%30.12 "Hg0 mi
7:30 AM36 °FFog.No wind100%30.12 "Hg0 mi
7:00 AM36 °FFog.No wind100%30.09 "Hg0 mi
Weather by CustomWeather, © 2014

See weather overviewHow to use our weather pages